GW4252 Weather Reports


Display with metric or nautical units.
time (UTC)temp
F
wind
direction
speed
MPH
gust
MPH
rain 1hr
in
rain 24hr
in
rain mn
in
humidity
%
barometer
mb
20260510225211 59 247 2.0 10.0 0.00 0.14 0.01 62 1014.0
20260510224710 58 265 2.0 10.0 0.00 0.14 0.01 63 1014.0
20260510224211 58 174 2.0 2.0 0.00 0.14 0.01 62 1013.8
20260510223711 58 71 0.0 0.0 0.00 0.14 0.01 62 1013.7
20260510223212 58 71 0.0 0.0 0.00 0.14 0.01 62 1013.8
20260510222710 58 71 0.0 0.0 0.00 0.14 0.01 62 1013.8
20260510222211 57 71 0.0 0.0 0.00 0.14 0.01 62 1013.7
20260510221710 57 71 0.0 0.0 0.00 0.14 0.01 63 1013.7
20260510221210 57 71 0.0 1.0 0.00 0.14 0.01 63 1013.7
20260510220711 57 71 0.0 2.0 0.00 0.14 0.01 62 1013.7
20260510220213 57 71 1.0 4.0 0.00 0.14 0.01 62 1013.7
20260510215711 57 71 0.0 4.0 0.00 0.14 0.01 62 1013.7
20260510214710 57 93 2.0 3.0 0.00 0.14 0.01 62 1013.8
20260510214210 57 94 1.0 4.0 0.00 0.14 0.01 62 1013.7
20260510213711 57 102 1.0 4.0 0.00 0.14 0.01 62 1013.7
20260510213211 57 101 2.0 4.0 0.00 0.14 0.01 62 1013.7
20260510212711 58 105 0.0 4.0 0.00 0.14 0.01 62 1013.6
20260510212211 58 105 0.0 6.0 0.00 0.14 0.01 62 1013.5
20260510211711 58 105 3.0 6.0 0.00 0.14 0.01 62 1013.3
20260510211210 58 96 2.0 3.0 0.00 0.14 0.01 62 1013.3
20260510210710 58 96 0.0 3.0 0.00 0.14 0.01 61 1013.3
20260510205710 59 92 1.0 2.0 0.00 0.17 0.01 61 1013.2
20260510204712 59 92 1.0 3.0 0.00 0.17 0.01 61 1013.1
20260510204210 59 93 3.0 3.0 0.00 0.17 0.01 61 1013.1
20260510203710 59 97 0.0 3.0 0.00 0.17 0.01 61 1013.0
20260510203210 59 102 2.0 4.0 0.00 0.17 0.01 60 1013.1
20260510202710 59 103 2.0 4.0 0.00 0.17 0.01 60 1013.0
20260510202210 59 105 0.0 3.0 0.00 0.17 0.01 60 1013.2
20260510201710 60 104 2.0 3.0 0.00 0.17 0.01 60 1013.1
20260510201210 60 112 1.0 6.0 0.00 0.17 0.01 59 1013.2
20260510200710 60 105 3.0 6.0 0.00 0.17 0.01 59 1013.3
20260510195709 60 99 2.0 6.0 0.00 0.25 0.01 59 1013.2
20260510195209 60 94 1.0 6.0 0.00 0.25 0.01 59 1013.2
20260510194709 60 71 0.0 5.0 0.00 0.25 0.01 60 1013.1
20260510193709 60 102 1.0 3.0 0.00 0.25 0.01 60 1013.2
20260510193210 60 103 2.0 3.0 0.00 0.25 0.01 60 1013.3
20260510192209 60 103 0.0 4.0 0.00 0.25 0.01 59 1013.5
20260510191710 60 115 2.0 3.0 0.00 0.25 0.01 59 1013.6
20260510191209 60 115 1.0 3.0 0.00 0.25 0.01 58 1013.7
20260510190710 61 115 0.0 4.0 0.00 0.25 0.01 57 1013.7
20260510190210 62 98 1.0 4.0 0.00 0.29 0.01 55 1013.7
20260510185711 63 90 2.0 4.0 0.00 0.29 0.01 55 1013.9
20260510185210 63 229 1.0 4.0 0.00 0.29 0.01 55 1013.9
20260510184710 63 177 1.0 3.0 0.00 0.29 0.01 57 1013.9
20260510183711 62 173 2.0 3.0 0.00 0.29 0.01 56 1013.9
20260510182710 63 174 2.0 6.0 0.00 0.29 0.01 53 1013.8
20260510182210 64 155 3.0 5.0 0.00 0.29 0.01 53 1013.8
20260510181710 64 191 0.0 6.0 0.00 0.29 0.01 52 1013.8
20260510181210 64 227 2.0 8.0 0.00 0.29 0.01 52 1013.7
20260510180710 65 202 4.0 8.0 0.00 0.29 0.01 51 1013.7
20260510180209 65 192 4.0 8.0 0.00 0.29 0.01 54 1013.8
20260510175709 64 223 0.0 8.0 0.00 0.29 0.01 54 1013.8
20260510175210 64 200 7.0 8.0 0.00 0.29 0.01 56 1013.9
20260510174709 63 228 2.0 10.0 0.00 0.29 0.01 57 1013.8
20260510174210 62 236 6.0 10.0 0.00 0.29 0.01 57 1013.9
20260510173709 62 238 6.0 11.0 0.00 0.29 0.01 58 1013.9
20260510173209 61 276 4.0 11.0 0.00 0.29 0.01 58 1014.0
20260510172709 61 272 2.0 8.0 0.00 0.29 0.01 60 1013.9
20260510172209 61 258 2.0 11.0 0.00 0.29 0.01 60 1013.9
20260510171709 60 254 5.0 11.0 0.00 0.29 0.01 62 1014.0
20260510171210 60 271 4.0 10.0 0.00 0.29 0.01 62 1014.1
20260510170709 60 205 2.0 9.0 0.00 0.29 0.01 63 1014.0
20260510170210 60 208 5.0 10.0 0.00 0.29 0.01 64 1014.1
20260510165711 60 234 0.0 10.0 0.00 0.29 0.01 65 1014.2
20260510165210 59 232 8.0 10.0 0.00 0.29 0.01 65 1014.2
20260510164711 59 275 4.0 10.0 0.00 0.29 0.01 65 1014.2
20260510163709 58 221 2.0 10.0 0.00 0.29 0.01 66 1014.4
20260510163211 57 250 7.0 9.0 0.00 0.29 0.01 66 1014.4
20260510162710 57 244 0.0 9.0 0.00 0.29 0.01 66 1014.2
20260510162210 56 250 2.0 9.0 0.00 0.29 0.01 66 1014.2
20260510161711 56 271 6.0 9.0 0.00 0.29 0.01 66 1014.2
20260510161211 56 240 8.0 9.0 0.00 0.29 0.01 67 1014.3
20260510160711 55 261 2.0 8.0 0.00 0.29 0.01 67 1014.2
20260510160210 55 294 4.0 7.0 0.00 0.29 0.01 67 1014.2
20260510155709 55 273 4.0 8.0 0.00 0.29 0.01 67 1014.3
20260510155208 56 254 4.0 7.0 0.00 0.29 0.01 67 1014.3
20260510154709 55 255 5.0 7.0 0.00 0.29 0.01 67 1014.3
20260510154209 55 220 3.0 6.0 0.00 0.29 0.01 67 1014.3
20260510153710 55 261 0.0 7.0 0.00 0.29 0.01 67 1014.4
20260510153210 55 259 0.0 7.0 0.00 0.29 0.01 67 1014.5
20260510152709 55 296 2.0 5.0 0.00 0.29 0.01 67 1014.6
20260510151709 55 262 6.0 6.0 0.00 0.29 0.01 67 1014.5
20260510151209 55 234 4.0 4.0 0.00 0.29 0.01 67 1014.7
20260510150209 54 296 1.0 5.0 0.00 0.29 0.01 67 1014.5
20260510145709 54 296 2.0 5.0 0.00 0.29 0.01 67 1014.7
20260510145209 53 234 4.0 4.0 0.00 0.29 0.01 67 1014.6
20260510144709 53 92 0.0 0.0 0.00 0.29 0.01 67 1014.6
20260510143210 52 93 0.0 3.0 0.00 0.29 0.01 67 1014.4
20260510142709 53 93 1.0 3.0 0.00 0.29 0.01 67 1014.3
20260510142209 53 93 0.0 3.0 0.00 0.29 0.01 67 1014.2
20260510140709 53 96 0.0 2.0 0.00 0.29 0.01 67 1014.1
20260510140212 52 96 0.0 2.0 0.00 0.29 0.01 67 1014.0
20260510135710 52 96 1.0 3.0 0.00 0.29 0.01 67 1014.0
20260510135211 52 98 1.0 3.0 0.00 0.29 0.01 67 1014.1
20260510134710 52 98 0.0 3.0 0.00 0.29 0.01 67 1014.1
20260510134210 52 99 1.0 3.0 0.00 0.29 0.01 67 1014.0
20260510133711 52 98 2.0 3.0 0.00 0.29 0.01 67 1014.2
20260510133210 52 105 0.0 3.0 0.00 0.29 0.01 67 1014.1
20260510132710 52 105 1.0 4.0 0.00 0.29 0.01 67 1014.0
20260510131712 52 104 3.0 4.0 0.00 0.29 0.01 67 1013.9
20260510131211 52 103 1.0 4.0 0.00 0.29 0.01 67 1014.0
20260510130210 52 102 2.0 4.0 0.00 0.29 0.01 67 1013.9
20260510125709 52 102 1.0 4.0 0.00 0.29 0.01 67 1013.8
20260510125209 52 101 4.0 4.0 0.00 0.29 0.01 67 1013.9
20260510124710 52 101 1.0 3.0 0.00 0.29 0.01 67 1013.9
20260510124209 52 100 2.0 3.0 0.00 0.29 0.01 67 1013.8
20260510123709 53 100 3.0 4.0 0.00 0.29 0.01 67 1013.7
20260510123210 53 103 2.0 4.0 0.00 0.29 0.01 67 1013.5
20260510122710 53 106 2.0 4.0 0.00 0.29 0.01 67 1013.4
20260510122209 52 91 4.0 4.0 0.00 0.29 0.01 67 1013.3
20260510121210 52 101 2.0 6.0 0.00 0.29 0.01 67 1013.2
20260510120211 52 101 1.0 4.0 0.00 0.29 0.01 67 1013.2
20260510115710 52 101 2.0 4.0 0.00 0.29 0.01 67 1013.2
20260510115209 52 101 1.0 3.0 0.00 0.29 0.01 68 1013.3
20260510114710 52 101 0.0 3.0 0.00 0.29 0.01 68 1013.2
20260510114209 52 102 2.0 3.0 0.00 0.29 0.01 68 1013.1
20260510113210 52 103 0.0 4.0 0.00 0.29 0.01 68 1013.0
20260510112709 52 102 1.0 4.0 0.00 0.29 0.01 68 1013.1
20260510112210 52 106 1.0 4.0 0.00 0.29 0.01 68 1013.1
20260510111711 52 100 2.0 4.0 0.00 0.29 0.01 68 1012.9
20260510111209 52 99 2.0 6.0 0.00 0.29 0.01 67 1013.0
20260510110211 52 112 3.0 4.0 0.00 0.29 0.01 67 1012.9
20260510105709 52 125 2.0 4.0 0.00 0.29 0.01 67 1013.0
20260510105210 52 148 1.0 3.0 0.00 0.29 0.01 67 1012.9
20260510104709 52 148 0.0 2.0 0.00 0.29 0.01 67 1012.8
20260510103709 52 148 0.0 2.0 0.00 0.29 0.01 67 1012.9
20260510103209 51 149 1.0 3.0 0.00 0.29 0.01 68 1012.8
20260510102709 51 148 0.0 3.0 0.00 0.29 0.01 68 1012.8
20260510102209 51 146 2.0 5.0 0.00 0.29 0.01 68 1012.8
20260510101709 51 117 0.0 5.0 0.00 0.29 0.01 67 1013.0
20260510100710 51 149 2.0 3.0 0.00 0.29 0.01 67 1012.8
20260510100212 51 94 0.0 3.0 0.00 0.29 0.01 67 1012.8
20260510095709 51 94 1.0 3.0 0.00 0.29 0.01 67 1013.0
20260510095209 51 94 0.0 4.0 0.00 0.29 0.01 67 1013.2
20260510094710 51 94 0.0 4.0 0.00 0.29 0.01 67 1013.1
20260510093210 51 27 2.0 3.0 0.00 0.29 0.01 67 1013.2
20260510092709 51 28 3.0 4.0 0.00 0.29 0.01 67 1013.2
20260510091710 52 27 4.0 5.0 0.00 0.29 0.01 67 1013.1
20260510091210 51 37 0.0 4.0 0.00 0.29 0.01 67 1013.2
20260510090709 51 360 2.0 6.0 0.00 0.29 0.01 67 1013.2
20260510090211 51 345 2.0 8.0 0.00 0.29 0.01 67 1013.2
20260510085709 51 13 2.0 8.0 0.00 0.29 0.01 67 1013.1
20260510085209 51 5 2.0 6.0 0.00 0.29 0.01 67 1013.1
20260510084710 51 10 2.0 3.0 0.00 0.29 0.01 67 1013.1
20260510083709 51 5 1.0 4.0 0.00 0.29 0.01 67 1013.2
20260510083208 51 53 1.0 5.0 0.00 0.29 0.01 67 1013.2
20260510082709 51 22 1.0 5.0 0.00 0.29 0.01 67 1013.2
20260510081709 51 115 0.0 7.0 0.00 0.29 0.01 67 1012.4
20260510080211 51 108 1.0 2.0 0.00 0.29 0.01 67 1012.3
20260510075709 51 108 0.0 3.0 0.00 0.29 0.01 67 1012.2
20260510075209 51 107 0.0 3.0 0.00 0.29 0.01 67 1012.1
20260510074709 51 89 0.0 3.0 0.00 0.29 0.01 67 1012.2
20260510074209 51 80 0.0 3.0 0.00 0.29 0.01 67 1012.3
20260510073709 51 80 0.0 2.0 0.00 0.29 0.01 67 1012.4
20260510073209 51 80 0.0 2.0 0.00 0.29 0.01 67 1012.3
20260510072710 51 80 0.0 2.0 0.00 0.29 0.01 67 1012.3
20260510072210 51 80 0.0 0.0 0.00 0.29 0.01 67 1012.4
20260510071710 51 80 0.0 2.0 0.00 0.29 0.01 67 1012.3
20260510071209 51 80 0.0 3.0 0.00 0.29 0.01 67 1012.2
20260510070710 51 80 1.0 4.0 0.00 0.29 0.01 67 1012.2
20260510070211 51 80 3.0 4.0 0.00 0.29 0.01 67 1012.3
20260510065709 51 79 1.0 4.0 0.00 0.29 0.01 67 1012.3
20260510065210 51 78 0.0 4.0 0.00 0.29 0.01 67 1012.2
20260510064710 51 79 0.0 6.0 0.00 0.29 0.01 67 1012.3
20260510064210 51 78 3.0 6.0 0.00 0.29 0.01 67 1012.2
20260510063709 51 59 3.0 7.0 0.00 0.29 0.01 67 1012.2
20260510062709 51 84 3.0 6.0 0.00 0.29 0.01 67 1012.1
20260510062209 51 76 1.0 3.0 0.00 0.29 0.01 67 1012.0
20260510061209 51 77 2.0 5.0 0.00 0.29 0.01 67 1012.0
20260510060709 52 92 3.0 4.0 0.00 0.29 0.01 67 1012.1
20260510060211 52 94 0.0 3.0 0.00 0.29 0.01 67 1012.2
20260510055710 52 94 0.0 4.0 0.00 0.29 0.01 67 1012.1
20260510054709 52 105 2.0 4.0 0.00 0.29 0.01 67 1012.0
20260510053709 52 101 3.0 6.0 0.00 0.29 0.01 67 1012.1
20260510053209 52 100 0.0 6.0 0.00 0.29 0.01 67 1012.2
20260510052708 52 103 2.0 4.0 0.00 0.29 0.01 67 1012.2
20260510052210 52 103 0.0 4.0 0.00 0.29 0.01 67 1012.2
20260510051709 52 102 2.0 3.0 0.01 0.29 0.01 67 1012.3
20260510051209 52 92 0.0 4.0 0.01 0.29 0.01 67 1012.3
20260510050211 52 88 0.0 4.0 0.01 0.29 0.01 67 1012.3
20260510045209 52 90 3.0 6.0 0.01 0.29 0.01 67 1012.1
20260510044711 52 93 4.0 4.0 0.01 0.29 0.01 67 1012.2
20260510044210 53 85 2.0 4.0 0.01 0.29 0.01 67 1012.2
20260510043710 52 82 2.0 2.0 0.01 0.29 0.01 67 1012.2
20260510043211 52 83 0.0 2.0 0.01 0.29 0.01 67 1012.2
20260510042710 52 82 0.0 3.0 0.01 0.29 0.01 67 1012.2
20260510042210 52 83 1.0 3.0 0.01 0.29 0.01 67 1012.2
20260510041210 53 81 1.0 4.0 0.00 0.28 0.00 67 1012.2
20260510040215 53 69 0.0 3.0 0.00 0.28 0.00 67 1012.0
20260510035211 52 67 1.0 2.0 0.00 0.28 0.28 66 1011.9
20260510034713 53 67 0.0 3.0 0.00 0.28 0.28 67 1011.8
20260510034211 52 67 2.0 4.0 0.00 0.28 0.28 66 1011.8
20260510033712 52 67 1.0 5.0 0.00 0.28 0.28 66 1011.9
20260510032712 53 92 3.0 6.0 0.00 0.28 0.28 66 1011.9
20260510032213 53 68 2.0 5.0 0.00 0.28 0.28 66 1011.8
20260510031712 53 71 4.0 6.0 0.00 0.28 0.28 66 1011.9
20260510031211 53 69 5.0 5.0 0.00 0.28 0.28 66 1011.8
20260510030711 53 65 3.0 5.0 0.00 0.28 0.28 66 1011.8
20260510030211 53 56 3.0 5.0 0.00 0.28 0.28 66 1011.8
20260510025710 53 55 1.0 4.0 0.00 0.28 0.28 66 1011.8
20260510025209 53 48 1.0 3.0 0.00 0.28 0.28 66 1011.9
20260510024710 53 48 2.0 3.0 0.00 0.28 0.28 66 1012.0
20260510024210 53 48 3.0 3.0 0.00 0.28 0.28 66 1012.0
20260510023711 53 47 0.0 3.0 0.00 0.28 0.28 66 1012.0
20260510023210 53 48 1.0 3.0 0.00 0.28 0.28 66 1012.0
20260510022711 53 48 0.0 2.0 0.00 0.28 0.28 66 1012.0
20260510021711 52 48 1.0 2.0 0.00 0.28 0.28 66 1011.9
20260510021209 52 48 0.0 2.0 0.00 0.28 0.28 66 1011.9
20260510020709 52 48 0.0 3.0 0.00 0.28 0.28 66 1011.9
20260510020213 52 48 3.0 3.0 0.00 0.28 0.28 66 1012.0
20260510015711 52 49 1.0 3.0 0.00 0.28 0.28 66 1012.0
20260510015212 52 63 1.0 4.0 0.00 0.28 0.28 66 1012.0
20260510014711 51 62 1.0 4.0 0.00 0.28 0.28 66 1011.9
20260510014212 51 65 1.0 4.0 0.00 0.28 0.28 66 1011.9
20260510012211 51 92 2.0 3.0 0.00 0.28 0.28 65 1011.5
20260510011212 51 92 0.0 3.0 0.00 0.28 0.28 65 1011.4
20260510010711 51 92 1.0 2.0 0.00 0.28 0.28 65 1011.3
20260510010211 52 93 0.0 2.0 0.00 0.28 0.28 65 1011.3
20260510005211 52 93 1.0 1.0 0.00 0.28 0.28 65 1011.3
20260510004712 52 93 0.0 0.0 0.00 0.28 0.28 65 1011.3
20260510004211 52 93 0.0 0.0 0.00 0.28 0.28 65 1011.4
20260510003710 53 93 0.0 2.0 0.00 0.28 0.28 65 1011.2
20260510003211 53 93 0.0 6.0 0.00 0.28 0.28 65 1011.3
20260510002712 53 93 3.0 6.0 0.00 0.28 0.28 65 1011.2
20260510002211 53 63 2.0 3.0 0.00 0.28 0.28 65 1011.2
20260510001711 53 63 2.0 3.0 0.00 0.28 0.28 65 1011.3
20260510001210 53 59 0.0 5.0 0.00 0.28 0.28 64 1011.2
20260510000712 54 76 3.0 5.0 0.00 0.28 0.28 65 1011.1
20260510000212 54 80 3.0 4.0 0.00 0.28 0.28 64 1011.0
20260509235710 54 86 1.0 3.0 0.00 0.28 0.28 65 1011.1
20260509235210 54 86 1.0 3.0 0.00 0.28 0.28 64 1011.1
20260509234710 54 86 1.0 2.0 0.01 0.28 0.28 65 1011.2
20260509233710 54 46 0.0 2.0 0.04 0.28 0.28 64 1011.4
20260509233211 54 46 0.0 3.0 0.05 0.28 0.28 64 1011.3
20260509232709 54 46 0.0 5.0 0.06 0.28 0.28 64 1011.2
20260509232210 54 41 3.0 5.0 0.06 0.28 0.28 64 1011.0
20260509231710 54 36 2.0 4.0 0.06 0.28 0.28 64 1011.0
20260509231210 54 103 2.0 6.0 0.07 0.28 0.28 63 1011.1
20260509230710 54 105 1.0 6.0 0.11 0.28 0.28 64 1011.0
20260509230213 54 80 3.0 9.0 0.13 0.28 0.28 63 1010.7
20260509225711 54 85 5.0 16.0 0.13 0.28 0.28 63 1010.5